When you browse on this site, cookies collect data to enhance your experience and personalize the content and advertising you see.
Visit our Privacy Policy to learn more. By continuing to use the site, you agree to this use of cookies and data.
  • En España
  • Lista de países
  • Para 7 días
  • Temperatura del agua
  • Mapa Satelital
  • El tiempo en el mapa
  • Informadores
  • user-avatar
    Iniciar sesión

    Tiempo cada hora Osiek

    Hoy, 26 Junio, Miércoles

    Tiempo Temperatura Precipitaciones Viento Presión Humedad
    00:00 +23°C° 0 mm 1 mps 760 mmHg 83%
    01:00 +21°C° 0 mm 0 mps 760 mmHg 85%
    02:00 +20°C° 0 mm 0 mps 760 mmHg 85%
    03:00 +20°C° 0 mm 0 mps 760 mmHg 86%
    04:00 +20°C° 0 mm 0 mps 760 mmHg 87%
    05:00 +23°C° 0 mm 1 mps 760 mmHg 83%
    06:00 +25°C° 0 mm 1 mps 760 mmHg 80%
    07:00 +26°C° 0 mm 1 mps 760 mmHg 77%
    08:00 +27°C° 0 mm 1 mps 760 mmHg 73%
    09:00 +29°C° 0 mm 1 mps 760 mmHg 68%
    10:00 +30°C° 0 mm 2 mps 760 mmHg 64%
    11:00 +31°C° 0 mm 2 mps 760 mmHg 61%
    12:00 +32°C° 0 mm 2 mps 760 mmHg 58%
    13:00 +32°C° 0 mm 2 mps 760 mmHg 55%
    14:00 +32°C° 0 mm 1 mps 759 mmHg 55%
    15:00 +33°C° 0 mm 1 mps 759 mmHg 55%
    16:00 +33°C° 0 mm 1 mps 758 mmHg 55%
    17:00 +31°C° 0 mm 1 mps 758 mmHg 60%
    18:00 +30°C° 0 mm 1 mps 758 mmHg 64%
    19:00 +28°C° 0 mm 1 mps 758 mmHg 69%
    20:00 +27°C° 0 mm 1 mps 758 mmHg 71%
    21:00 +26°C° 0 mm 1 mps 758 mmHg 73%
    22:00 +25°C° 0 mm 1 mps 758 mmHg 75%
    23:00 +25°C° 0 mm 1 mps 758 mmHg 78%

    Mañana, 27 Junio, Jueves

    Tiempo Temperatura Precipitaciones Viento Presión Humedad
    00:00 +24°C° 0 mm 1 mps 758 mmHg 81%
    01:00 +23°C° 0 mm 1 mps 758 mmHg 84%
    02:00 +23°C° 0 mm 1 mps 758 mmHg 85%
    03:00 +23°C° 0 mm 1 mps 757 mmHg 86%
    04:00 +22°C° 0 mm 1 mps 757 mmHg 87%
    05:00 +24°C° 0 mm 1 mps 757 mmHg 85%
    06:00 +25°C° 0 mm 1 mps 757 mmHg 82%
    07:00 +27°C° 0 mm 2 mps 757 mmHg 80%
    08:00 +28°C° 0 mm 2 mps 757 mmHg 75%
    09:00 +29°C° 0 mm 2 mps 756 mmHg 69%
    10:00 +31°C° 0 mm 2 mps 756 mmHg 64%
    11:00 +33°C° 0 mm 3 mps 756 mmHg 62%
    12:00 +33°C° 0 mm 3 mps 755 mmHg 60%
    13:00 +34°C° 0 mm 3 mps 755 mmHg 58%
    14:00 +34°C° 0 mm 3 mps 754 mmHg 61%
    15:00 +34°C° 0 mm 3 mps 754 mmHg 63%
    16:00 +34°C° 0 mm 3 mps 754 mmHg 66%
    17:00 +33°C° 0.3 mm 4 mps 753 mmHg 71%
    18:00 +30°C° 0.3 mm 4 mps 753 mmHg 76%
    19:00 +28°C° 0.3 mm 4 mps 753 mmHg 82%
    20:00 +26°C° 0 mm 4 mps 754 mmHg 78%
    21:00 +23°C° 0 mm 4 mps 754 mmHg 75%
    22:00 +21°C° 0 mm 4 mps 755 mmHg 72%
    23:00 +20°C° 0 mm 3 mps 755 mmHg 74%

    Pasado mañana, 28 Junio, Viernes

    Tiempo Temperatura Precipitaciones Viento Presión Humedad
    00:00 +19°C° 0 mm 3 mps 756 mmHg 77%
    01:00 +18°C° 0 mm 3 mps 756 mmHg 79%
    02:00 +18°C° 0 mm 3 mps 756 mmHg 80%
    03:00 +17°C° 0 mm 3 mps 756 mmHg 80%
    04:00 +16°C° 0 mm 2 mps 756 mmHg 81%
    05:00 +17°C° 0 mm 3 mps 757 mmHg 78%
    06:00 +18°C° 0 mm 3 mps 757 mmHg 75%
    07:00 +19°C° 0 mm 3 mps 757 mmHg 73%
    08:00 +21°C° 0 mm 3 mps 757 mmHg 70%
    09:00 +22°C° 0 mm 3 mps 757 mmHg 67%
    10:00 +23°C° 0 mm 4 mps 757 mmHg 64%
    11:00 +25°C° 0 mm 4 mps 756 mmHg 62%
    12:00 +26°C° 0 mm 4 mps 756 mmHg 61%
    13:00 +26°C° 0 mm 4 mps 756 mmHg 60%
    14:00 +26°C° 0 mm 4 mps 756 mmHg 60%
    15:00 +26°C° 0 mm 4 mps 755 mmHg 61%
    16:00 +26°C° 0 mm 4 mps 755 mmHg 61%
    17:00 +25°C° 0 mm 4 mps 755 mmHg 67%
    18:00 +24°C° 0 mm 3 mps 756 mmHg 72%
    19:00 +23°C° 0 mm 2 mps 756 mmHg 77%
    20:00 +21°C° 0 mm 2 mps 756 mmHg 79%
    21:00 +21°C° 0 mm 1 mps 756 mmHg 80%
    22:00 +20°C° 0 mm 1 mps 757 mmHg 82%
    23:00 +19°C° 0 mm 1 mps 757 mmHg 84%

    29 Junio, Sábado

    Tiempo Temperatura Precipitaciones Viento Presión Humedad
    00:00 +19°C° 0 mm 1 mps 757 mmHg 87%
    01:00 +18°C° 0 mm 1 mps 757 mmHg 89%
    02:00 +18°C° 0 mm 1 mps 757 mmHg 90%
    03:00 +16°C° 0 mm 1 mps 757 mmHg 91%
    04:00 +16°C° 0 mm 1 mps 757 mmHg 91%
    05:00 +18°C° 0 mm 1 mps 757 mmHg 88%
    06:00 +20°C° 0 mm 1 mps 757 mmHg 84%
    07:00 +21°C° 0 mm 1 mps 757 mmHg 80%
    08:00 +22°C° 0 mm 1 mps 757 mmHg 76%
    09:00 +23°C° 0 mm 1 mps 757 mmHg 72%
    10:00 +25°C° 0 mm 1 mps 757 mmHg 67%
    11:00 +25°C° 0.1 mm 1 mps 757 mmHg 65%
    12:00 +26°C° 0.1 mm 2 mps 757 mmHg 62%
    13:00 +27°C° 0.1 mm 2 mps 757 mmHg 60%
    14:00 +27°C° 0.1 mm 2 mps 756 mmHg 60%
    15:00 +27°C° 0.1 mm 2 mps 756 mmHg 61%
    16:00 +27°C° 0.1 mm 3 mps 756 mmHg 61%
    17:00 +25°C° 0 mm 2 mps 756 mmHg 67%
    18:00 +24°C° 0 mm 2 mps 756 mmHg 72%
    19:00 +23°C° 0 mm 2 mps 757 mmHg 78%
    20:00 +21°C° 0 mm 2 mps 757 mmHg 77%
    21:00 +20°C° 0 mm 2 mps 757 mmHg 77%
    22:00 +19°C° 0 mm 2 mps 758 mmHg 76%
    23:00 +18°C° 0 mm 2 mps 758 mmHg 77%

    30 Junio, Domingo

    Tiempo Temperatura Precipitaciones Viento Presión Humedad
    00:00 +18°C° 0 mm 2 mps 758 mmHg 78%
    01:00 +17°C° 0 mm 2 mps 758 mmHg 80%
    02:00 +17°C° 0 mm 2 mps 758 mmHg 78%
    03:00 +16°C° 0 mm 1 mps 758 mmHg 76%
    04:00 +15°C° 0 mm 1 mps 758 mmHg 75%
    05:00 +18°C° 0 mm 1 mps 758 mmHg 71%
    06:00 +19°C° 0 mm 1 mps 758 mmHg 67%
    07:00 +21°C° 0 mm 1 mps 759 mmHg 63%
    08:00 +22°C° 0 mm 1 mps 759 mmHg 60%
    09:00 +23°C° 0 mm 2 mps 759 mmHg 57%
    10:00 +25°C° 0 mm 3 mps 759 mmHg 54%
    11:00 +25°C° 0 mm 3 mps 758 mmHg 53%
    12:00 +26°C° 0 mm 3 mps 758 mmHg 51%
    13:00 +27°C° 0 mm 2 mps 758 mmHg 50%
    14:00 +27°C° 0 mm 3 mps 758 mmHg 51%
    15:00 +27°C° 0 mm 3 mps 757 mmHg 53%
    16:00 +27°C° 0 mm 3 mps 757 mmHg 54%
    17:00 +25°C° 0 mm 2 mps 757 mmHg 59%
    18:00 +24°C° 0 mm 2 mps 757 mmHg 64%
    19:00 +21°C° 0 mm 2 mps 757 mmHg 69%
    20:00 +20°C° 0 mm 2 mps 757 mmHg 72%
    21:00 +20°C° 0 mm 1 mps 757 mmHg 74%
    22:00 +19°C° 0 mm 1 mps 757 mmHg 76%
    23:00 +18°C° 0 mm 1 mps 757 mmHg 79%

    1 Julio, Lunes

    Tiempo Temperatura Precipitaciones Viento Presión Humedad
    00:00 +18°C° 0 mm 1 mps 757 mmHg 81%
    01:00 +16°C° 0 mm 1 mps 757 mmHg 83%
    02:00 +16°C° 0 mm 1 mps 757 mmHg 84%
    03:00 +16°C° 0 mm 1 mps 756 mmHg 85%
    04:00 +15°C° 0 mm 1 mps 756 mmHg 87%
    05:00 +18°C° 0 mm 1 mps 756 mmHg 83%
    06:00 +20°C° 0 mm 1 mps 756 mmHg 79%
    07:00 +20°C° 0 mm 2 mps 756 mmHg 75%
    08:00 +23°C° 0 mm 2 mps 756 mmHg 71%
    09:00 +24°C° 0 mm 2 mps 756 mmHg 67%
    10:00 +26°C° 0 mm 2 mps 755 mmHg 63%
    11:00 +27°C° 0 mm 2 mps 755 mmHg 60%
    12:00 +28°C° 0 mm 2 mps 755 mmHg 57%
    13:00 +29°C° 0 mm 2 mps 755 mmHg 54%
    14:00 +29°C° 0 mm 2 mps 754 mmHg 55%
    15:00 +29°C° 0 mm 2 mps 754 mmHg 55%
    16:00 +30°C° 0 mm 2 mps 753 mmHg 56%
    17:00 +28°C° 0 mm 2 mps 753 mmHg 62%
    18:00 +26°C° 0 mm 2 mps 752 mmHg 68%
    19:00 +25°C° 0 mm 2 mps 752 mmHg 73%
    20:00 +24°C° 0 mm 1 mps 752 mmHg 77%
    21:00 +23°C° 0 mm 1 mps 752 mmHg 80%
    22:00 +21°C° 0 mm 1 mps 753 mmHg 83%
    23:00 +21°C° 0 mm 1 mps 753 mmHg 84%
    Mostrar más